Zurück zum Katalog

CZ-6A DEB

AktivSSO
NORAD 55521·DEBRIS·🇨🇳 China

Gestartet Nov 11, 2022 von Taiyuan Satellite Launch Center

Loading…

Nächste Überflüge (nächste 24 Stunden)

TLE

AktuellSource: Space-Track

Epoche: Sep 14, 2026, 11:09 UTC

1 55521U 22151XT  26257.46511336  .00000184  00000-0  13011-3 0  9992
2 55521  98.8685 253.7796 0057473  93.8753 266.8991 14.08639748192108

Verfolge CZ-6A DEB in Echtzeit mit AllMySat

Download on the App Store